When you browse on this site, cookies collect data to enhance your experience and personalize the content and advertising you see.
Visit our Privacy Policy to learn more. By continuing to use the site, you agree to this use of cookies and data.
  • In Hungary
  • List of Countries
  • For 7 days
  • Water Temperature
  • Satellite Maps
  • Weather Map
  • News
  • Weather Widgets
  • user-avatar
    Login

    Hourly Weather Tuchubaevo

    Today, 18 November, Sunday

    Time Temperature Precipitation Wind Pressure Humidity
    00:00 -4°C° 0.1 mm 4 mps 755 mmHg 87%
    01:00 -4°C° 0.1 mm 4 mps 755 mmHg 88%
    02:00 -4°C° 0.1 mm 4 mps 755 mmHg 88%
    03:00 -4°C° 0.1 mm 4 mps 754 mmHg 87%
    04:00 -4°C° 0 mm 4 mps 754 mmHg 81%
    05:00 -4°C° 0.1 mm 4 mps 754 mmHg 80%
    06:00 -4°C° 0.1 mm 4 mps 754 mmHg 79%
    07:00 -4°C° 0.1 mm 4 mps 754 mmHg 78%
    08:00 -4°C° 0.1 mm 4 mps 754 mmHg 79%
    09:00 -4°C° 0.1 mm 4 mps 754 mmHg 79%
    10:00 -4°C° 0.1 mm 4 mps 754 mmHg 80%
    11:00 -3°C° 0.1 mm 4 mps 754 mmHg 81%
    12:00 -3°C° 0.1 mm 4 mps 754 mmHg 81%
    13:00 -3°C° 0.1 mm 4 mps 754 mmHg 81%
    14:00 -3°C° 0 mm 4 mps 754 mmHg 80%
    15:00 -3°C° 0 mm 4 mps 754 mmHg 79%
    16:00 -2°C° 0 mm 3 mps 755 mmHg 78%
    17:00 -2°C° 0 mm 3 mps 755 mmHg 75%
    18:00 -2°C° 0 mm 3 mps 755 mmHg 72%
    19:00 -2°C° 0 mm 3 mps 755 mmHg 70%
    20:00 -2°C° 0 mm 3 mps 755 mmHg 71%
    21:00 -2°C° 0 mm 3 mps 756 mmHg 72%
    22:00 -2°C° 0 mm 3 mps 756 mmHg 72%
    23:00 -2°C° 0.1 mm 3 mps 756 mmHg 75%

    Tomorrow, 19 November, Monday

    Time Temperature Precipitation Wind Pressure Humidity
    00:00 -4°C° 0.1 mm 3 mps 756 mmHg 78%
    01:00 -4°C° 0.1 mm 3 mps 756 mmHg 81%
    02:00 -4°C° 0 mm 3 mps 756 mmHg 83%
    03:00 -4°C° 0 mm 3 mps 756 mmHg 84%
    04:00 -4°C° 0 mm 3 mps 757 mmHg 86%
    05:00 -4°C° 0 mm 3 mps 757 mmHg 87%
    06:00 -3°C° 0 mm 2 mps 757 mmHg 88%
    07:00 -3°C° 0 mm 2 mps 757 mmHg 89%
    08:00 -2°C° 0 mm 2 mps 757 mmHg 89%
    09:00 -2°C° 0 mm 3 mps 758 mmHg 89%
    10:00 -2°C° 0 mm 3 mps 758 mmHg 89%
    11:00 -2°C° 0 mm 3 mps 758 mmHg 89%
    12:00 -1°C° 0 mm 2 mps 758 mmHg 88%
    13:00 -1°C° 0 mm 2 mps 758 mmHg 88%
    14:00 -1°C° 0 mm 2 mps 758 mmHg 90%
    15:00 -2°C° 0 mm 2 mps 758 mmHg 92%
    16:00 -2°C° 0 mm 2 mps 758 mmHg 93%
    17:00 -2°C° 0.1 mm 2 mps 758 mmHg 94%
    18:00 -2°C° 0.1 mm 2 mps 758 mmHg 95%
    19:00 -2°C° 0.1 mm 2 mps 758 mmHg 95%
    20:00 -2°C° 0.1 mm 2 mps 758 mmHg 96%
    21:00 0°C° 0.1 mm 1 mps 758 mmHg 96%
    22:00 0°C° 0.1 mm 1 mps 758 mmHg 96%
    23:00 0°C° 0 mm 1 mps 758 mmHg 96%

    Day after tomorrow, 20 November, Tuesday

    Time Temperature Precipitation Wind Pressure Humidity
    00:00 0°C° 0 mm 1 mps 758 mmHg 96%
    01:00 0°C° 0 mm 1 mps 758 mmHg 96%
    02:00 0°C° 0 mm 1 mps 758 mmHg 96%
    03:00 0°C° 0 mm 1 mps 758 mmHg 96%
    04:00 0°C° 0 mm 1 mps 758 mmHg 96%
    05:00 0°C° 0 mm 1 mps 758 mmHg 96%
    06:00 -1°C° 0 mm 1 mps 757 mmHg 96%
    07:00 -1°C° 0 mm 1 mps 757 mmHg 96%
    08:00 -1°C° 0 mm 1 mps 757 mmHg 95%
    09:00 0°C° 0 mm 1 mps 757 mmHg 94%
    10:00 0°C° 0 mm 1 mps 757 mmHg 93%
    11:00 0°C° 0 mm 1 mps 757 mmHg 92%
    12:00 0°C° 0 mm 1 mps 757 mmHg 90%
    13:00 0°C° 0 mm 1 mps 756 mmHg 89%
    14:00 0°C° 0 mm 1 mps 756 mmHg 90%
    15:00 0°C° 0 mm 1 mps 756 mmHg 91%
    16:00 0°C° 0 mm 1 mps 756 mmHg 92%
    17:00 -3°C° 0 mm 2 mps 756 mmHg 92%
    18:00 -3°C° 0 mm 2 mps 755 mmHg 93%
    19:00 -3°C° 0 mm 2 mps 755 mmHg 93%
    20:00 -3°C° 0 mm 2 mps 755 mmHg 91%
    21:00 -3°C° 0 mm 2 mps 754 mmHg 90%
    22:00 -4°C° 0 mm 3 mps 754 mmHg 89%
    23:00 -5°C° 0 mm 3 mps 754 mmHg 88%

    21 November, Wednesday

    Time Temperature Precipitation Wind Pressure Humidity
    00:00 -5°C° 0 mm 3 mps 753 mmHg 87%
    01:00 -5°C° 0 mm 4 mps 753 mmHg 86%
    02:00 -5°C° 0 mm 4 mps 753 mmHg 85%
    03:00 -6°C° 0 mm 5 mps 752 mmHg 84%
    04:00 -6°C° 0 mm 5 mps 752 mmHg 84%
    05:00 -6°C° 0.2 mm 5 mps 751 mmHg 85%
    06:00 -6°C° 0.2 mm 5 mps 751 mmHg 86%
    07:00 -6°C° 0.2 mm 5 mps 750 mmHg 87%
    08:00 -6°C° 0.3 mm 5 mps 750 mmHg 88%
    09:00 -6°C° 0.3 mm 5 mps 749 mmHg 88%
    10:00 -6°C° 0.3 mm 5 mps 749 mmHg 89%
    11:00 -6°C° 0.4 mm 5 mps 749 mmHg 89%
    12:00 -6°C° 0.4 mm 5 mps 748 mmHg 89%
    13:00 -5°C° 0.4 mm 5 mps 748 mmHg 89%
    14:00 -4°C° 0.2 mm 4 mps 748 mmHg 90%
    15:00 -5°C° 0.2 mm 4 mps 747 mmHg 90%
    16:00 -5°C° 0.2 mm 4 mps 747 mmHg 90%
    17:00 -5°C° 0.1 mm 4 mps 747 mmHg 91%
    18:00 -5°C° 0.1 mm 3 mps 747 mmHg 91%
    19:00 -5°C° 0.1 mm 3 mps 747 mmHg 92%
    20:00 -5°C° 0 mm 4 mps 747 mmHg 92%
    21:00 -5°C° 0 mm 4 mps 747 mmHg 91%
    22:00 -5°C° 0 mm 4 mps 747 mmHg 90%
    23:00 -7°C° 0 mm 4 mps 746 mmHg 88%

    22 November, Thursday

    Time Temperature Precipitation Wind Pressure Humidity
    00:00 -7°C° 0 mm 4 mps 746 mmHg 87%
    01:00 -8°C° 0 mm 4 mps 746 mmHg 85%
    02:00 -8°C° 0 mm 4 mps 746 mmHg 86%
    03:00 -7°C° 0 mm 3 mps 746 mmHg 87%
    04:00 -8°C° 0 mm 3 mps 746 mmHg 87%
    05:00 -8°C° 0 mm 3 mps 745 mmHg 89%
    06:00 -8°C° 0 mm 3 mps 745 mmHg 91%
    07:00 -9°C° 0 mm 3 mps 744 mmHg 93%
    08:00 -9°C° 0 mm 4 mps 744 mmHg 93%
    09:00 -10°C° 0 mm 5 mps 743 mmHg 92%
    10:00 -10°C° 0 mm 5 mps 743 mmHg 91%
    11:00 -9°C° 0.1 mm 6 mps 742 mmHg 89%
    12:00 -9°C° 0.1 mm 6 mps 741 mmHg 88%
    13:00 -9°C° 0.1 mm 7 mps 740 mmHg 86%
    14:00 -9°C° 0.5 mm 7 mps 740 mmHg 88%
    15:00 -9°C° 0.5 mm 6 mps 739 mmHg 90%
    16:00 -9°C° 0.5 mm 6 mps 739 mmHg 91%
    17:00 -8°C° 0.5 mm 6 mps 739 mmHg 91%
    18:00 -7°C° 0.5 mm 5 mps 739 mmHg 91%
    19:00 -7°C° 0.5 mm 5 mps 739 mmHg 91%
    20:00 -8°C° 0.2 mm 5 mps 739 mmHg 86%
    21:00 -10°C° 0.2 mm 6 mps 740 mmHg 82%
    22:00 -11°C° 0.2 mm 6 mps 740 mmHg 77%
    23:00 -12°C° 0 mm 6 mps 741 mmHg 80%

    23 November, Friday

    Time Temperature Precipitation Wind Pressure Humidity
    00:00 -13°C° 0 mm 5 mps 742 mmHg 82%
    01:00 -14°C° 0 mm 4 mps 743 mmHg 84%
    02:00 -14°C° 0 mm 4 mps 743 mmHg 84%
    03:00 -14°C° 0 mm 4 mps 744 mmHg 83%
    04:00 -14°C° 0 mm 4 mps 745 mmHg 83%
    05:00 -15°C° 0 mm 4 mps 745 mmHg 82%
    06:00 -15°C° 0 mm 4 mps 746 mmHg 81%
    07:00 -16°C° 0 mm 4 mps 746 mmHg 81%
    08:00 -15°C° 0 mm 4 mps 746 mmHg 83%
    09:00 -14°C° 0 mm 4 mps 747 mmHg 85%
    10:00 -12°C° 0 mm 4 mps 747 mmHg 87%
    11:00 -12°C° 0 mm 5 mps 747 mmHg 86%
    12:00 -11°C° 0 mm 5 mps 747 mmHg 85%
    13:00 -10°C° 0 mm 6 mps 747 mmHg 84%
    14:00 -10°C° 0.1 mm 6 mps 747 mmHg 84%
    15:00 -10°C° 0.1 mm 6 mps 747 mmHg 84%
    16:00 -10°C° 0.1 mm 6 mps 747 mmHg 84%
    17:00 -10°C° 0.1 mm 6 mps 747 mmHg 84%
    18:00 -10°C° 0.1 mm 6 mps 747 mmHg 84%
    19:00 -10°C° 0.1 mm 6 mps 747 mmHg 85%
    20:00 -11°C° 0 mm 6 mps 747 mmHg 86%
    21:00 -11°C° 0 mm 6 mps 747 mmHg 88%
    22:00 -11°C° 0 mm 5 mps 747 mmHg 90%
    23:00 -11°C° 0 mm 5 mps 747 mmHg 90%
    Show more